Location: Keppel Henge
(44.7900°N, 80.9447°W)
Time: 01:54:02
(UTC-04:00)

Tiangong 1 - Pass Details

Date: 07 October 2017
Orbit: 294 x 320 km, 42.8° (Epoch: 17 October)

Event Time Altitude Azimuth Distance (km) Brightness Sun altitude
Rises 20:20:45 0° 251° (WSW) 2,032 5.9 -16.4°
Reaches altitude 10° 20:22:46 10° 245° (WSW) 1,198 4.4 -16.8°
Enters shadow 20:25:09 43° 187° (S) 442 1.3 -17.2°
